Location: S�tio Afonso Gruber
(26.1760°S, 49.5250°W)
Time: 22:14:37
(UTC+00:00)

ATLAS 3B CENTAUR R/B - Pass Details

Date: 07 June 2020
Orbit: 220 x 4356 km, 28.1° (Epoch: 10 July)

Event Time Altitude Azimuth Distance (km) Brightness Sun altitude
Exits shadow 09:10:19 - 303° (WNW) 1,650 3.4 -11.3°
Reaches altitude 10° 09:10:46 10° 305° (NW) 1,463 3.2 -11.2°
Maximum altitude 09:13:50 54° 24° (NNE) 723 2.2 -10.5°
Drops below altitude 10° 09:20:12 10° 100° (E) 2,999 6.1 -9.2°
Sets 09:24:32 0° 103° (ESE) 4,707 7.1 -8.3°
